This is the latest recevied weather packets stored in our database for station/object HS5BOG-13. If no packets are shown the sender has not sent any weather packets the latest 10 day(s).
| Time | Temp. | Humidity | Pressure | Rain* | Wind** | Luminosity | Snow |
|---|---|---|---|---|---|---|---|
| 1788514223 | 29.44° C | 90% | 989.7 hPa | - | - | - | - |
| 1788513617 | 30.56° C | 88% | 989.7 hPa | - | - | - | - |
| 1788513012 | 30.56° C | 94% | 989.1 hPa | - | - | - | - |
| 1788512407 | 30.56° C | 92% | 988.8 hPa | - | - | - | - |
| 1788511801 | 30.56° C | 92% | 988.7 hPa | - | - | - | - |
| 1788511195 | 30.56° C | 93% | 988.6 hPa | - | - | - | - |
| 1788510594 | 30.56° C | 92% | 988.4 hPa | - | - | - | - |
| 1788509985 | 30.56° C | 91% | 988.4 hPa | - | - | - | - |
| 1788509379 | 30.56° C | 92% | 988.4 hPa | - | - | - | - |
| 1788508773 | 30.56° C | 92% | 988.4 hPa | - | - | - | - |
| 1788508168 | 30.56° C | 92% | 988.4 hPa | - | - | - | - |
| 1788507562 | 30° C | 95% | 988.4 hPa | - | - | - | - |
| 1788506957 | 30° C | 96% | 988.6 hPa | - | - | - | - |
| 1788506351 | 30.56° C | 96% | 988.7 hPa | - | - | - | - |
| 1788505746 | 30° C | 98% | 989.1 hPa | - | - | - | - |
| 1788505140 | 30° C | 98% | 989.4 hPa | - | - | - | - |
| 1788504535 | 30° C | 98% | 989.5 hPa | - | - | - | - |
| 1788503929 | 30° C | 99% | 989.8 hPa | - | - | - | - |
| 1788503324 | 30° C | 98% | 989.8 hPa | - | - | - | - |
| 1788502718 | 30° C | 96% | 989.9 hPa | - | - | - | - |
| 1788502112 | 30° C | 94% | 990.1 hPa | - | - | - | - |
| 1788501506 | 30° C | 99% | 990.5 hPa | - | - | - | - |
| 1788500901 | 29.44° C | 10% | - | - | - | - | - |
| 1788500295 | 29.44° C | 10% | - | - | - | - | - |
| 1788499690 | 29.44° C | 10% | - | - | - | - | - |
* Rain since midnight (hover to see other rain measurements)
** Current wind speed in m/s (hover to see current wind gust speed)